This is the latest recevied weather packets stored in our database for station/object HS6PNA-1. If no packets are shown the sender has not sent any weather packets the latest 10 day(s).
| Time | Temp. | Humidity | Pressure | Rain* | Wind** | Luminosity | Snow |
|---|---|---|---|---|---|---|---|
| 1777938698 | 28.89° C | 82% | 1006 hPa | - | - | 19 W/m² | - |
| 1777937774 | 28.89° C | 83% | 1006 hPa | - | - | 12 W/m² | - |
| 1777936957 | 28.89° C | 82% | 1006 hPa | - | - | 5 W/m² | - |
| 1777936032 | 28.33° C | 85% | 1005 hPa | - | - | 2 W/m² | - |
| 1777935108 | 28.33° C | 85% | 1005 hPa | - | - | 0 W/m² | - |
| 1777934183 | 28.89° C | 83% | 1006 hPa | - | - | 0 W/m² | - |
| 1777933259 | 28.89° C | 83% | 1005 hPa | - | - | 0 W/m² | - |
| 1777932332 | 28.33° C | 81% | 1005 hPa | - | - | 0 W/m² | - |
| 1777931407 | 28.89° C | 81% | 1005 hPa | - | - | 0 W/m² | - |
| 1777930482 | 28.33° C | 83% | 1005 hPa | - | - | 0 W/m² | - |
| 1777929558 | 28.33° C | 81% | 1005 hPa | - | - | 0 W/m² | - |
| 1777928633 | 28.33° C | 84% | 1005 hPa | - | - | 0 W/m² | - |
| 1777927709 | 28.33° C | 83% | 1006 hPa | - | - | 0 W/m² | - |
| 1777926785 | 29.44° C | 79% | 1006 hPa | - | - | 0 W/m² | - |
| 1777925860 | 29.44° C | 79% | 1006 hPa | - | - | 0 W/m² | - |
| 1777924936 | 29.44° C | 78% | 1006 hPa | - | - | 0 W/m² | - |
| 1777924682 | 29.44° C | 78% | 1006 hPa | - | - | 0 W/m² | - |
| 1777923758 | 29.44° C | 78% | 1006 hPa | - | - | 0 W/m² | - |
| 1777922820 | 29.44° C | 77% | 1006 hPa | - | - | 0 W/m² | - |
| 1777921895 | 28.33° C | 80% | 1006 hPa | - | - | 0 W/m² | - |
| 1777920971 | 28.33° C | 80% | 1006 hPa | - | - | 0 W/m² | - |
| 1777920046 | 29.44° C | 74% | 1006 hPa | - | - | 0 W/m² | - |
| 1777919122 | 29.44° C | 70% | 1006 hPa | - | - | 0 W/m² | - |
| 1777918197 | 30° C | 69% | 1006 hPa | - | - | 0 W/m² | - |
| 1777917272 | 30.56° C | 74% | 1006 hPa | - | - | 0 W/m² | - |
* Rain since midnight (hover to see other rain measurements)
** Current wind speed in m/s (hover to see current wind gust speed)